Regional Weather Roundup
Issued by NWS Sioux Falls, SD

Home | Current Version | Previous Version | Graphics & Text | Print | Product List | Glossary On
Versions: 1 2 3 4 5 6 7 8 9 10 11 12 13 14 15 16 17 18 19 20 21 22 23 24 25 26 27 28 29 30 31 32 33 34 35 36 37 38 39 40 41 42 43 44 45 46 47 48 49 50
000
ASUS43 KFSD 221310
RWRFSD

WEATHER ROUNDUP FOR SE SOUTH DAKOTA/SW MINNESOTA/NW IOWA
NATIONAL WEATHER SERVICE SIOUX FALLS SD
800 AM CDT FRI SEP 22 2017

NOTE: "FAIR" INDICATES FEW OR NO CLOUDS BELOW 12,000 FEET WITH NO
SIGNIFICANT WEATHER AND OR OBSTRUCTIONS TO VISIBILITY.


SDZ038>040-050-052>070-221400-
SOUTHEAST SOUTH DAKOTA

CITY           SKY/WX    TMP DP  RH WIND       PRES   REMARKS
BROOKINGS      CLEAR     73  71  93 S13       29.74R
CHAMBERLAIN    CLEAR     76  71  85 SE8       29.62R
HURON          CLEAR     73  71  93 SE13      29.63S
MADISON        FAIR      73  73 100 S13G21    29.73S
MITCHELL       CLEAR     76  71  85 SE13      29.64F
SIOUX FALLS    PTCLDY    77  72  84 S17G25    29.73S
WINNER         FAIR      75  67  76 S16G24    29.61R
YANKTON        PTCLDY    77  71  82 S15G25    29.70R
$$

MNZ071-072-080-081-089-090-097-098-221400-
SOUTHWEST MINNESOTA

CITY           SKY/WX    TMP DP  RH WIND       PRES   REMARKS
FAIRMONT       CLEAR     74  70  87 S13       29.83R
JACKSON        CLEAR     73  70  88 S12       29.83S
LUVERNE        CLEAR     72  68  88 S8        29.77S
MARSHALL       PTCLDY    76  71  85 S20G28    29.73R
MONTEVIDEO     CLOUDY    72  72 100 SE3       29.76R FOG
PIPESTONE      CLEAR     73  70  88 S12G20    29.77S
REDWOOD FALLS  CLOUDY    76  71  85 SE8       29.76R THUNDER
TRACY          PTCLDY    76  72  88 S13G21    29.76S
WORTHINGTON    CLEAR     75  70  84 S14       29.80
$$

IAZ001>003-012>014-020>022-031-032-NEZ013-014-SDZ071-221400-
NORTHWEST IOWA

CITY           SKY/WX    TMP DP  RH WIND       PRES   REMARKS
CHEROKEE       CLEAR     74  72  91 S12G18    29.82R
DENISON        CLEAR     77  70  78 S18       29.86R
ESTHERVILLE    CLEAR     73  71  93 S12       29.82S
LE MARS        CLEAR     75  72  88 S16G24    29.77S
ORANGE CITY    CLEAR     75  72  88 S12G18    29.79S
SHELDON        CLEAR     75  70  83 S9        29.78S
SIOUX CITY     CLEAR     75  72  90 S12       29.78R
SPENCER        CLEAR     74  70  87 S12       29.82R
STORM LAKE     CLEAR     75  70  83 S15G22    29.83S
$$

ABBREVIATIONS USED IN REMARKS
   TC - TEMPERATURE IN CELSIUS
  WCI - WIND CHILL INDEX
   HX - HEAT INDEX
  VSB - VISIBILITY





USA.gov is the U.S. government's official web portal to all federal, state and local government web resources and services.